Location: Équennes
(49.7375°N, 1.9622°E)
Time: 17:55:04
(UTC+00:00)

Cosmos 2278 - Pass Details

Date: 25 September 2023
Orbit: 838 x 853 km, 71.1° (Epoch: 08 December)

Event Time Altitude Azimuth Distance (km) Brightness Sun altitude
Rises 00:11:32 0° 333° (NNW) 3,424 7.5 -40.6°
Reaches altitude 10° 00:15:09 10° 356° (N) 2,489 6.8 -40.5°
Maximum altitude 00:18:24 15° 31° (NNE) 2,140 6.3 -40.4°
Drops below altitude 10° 00:21:38 10° 65° (ENE) 2,487 6.4 -40.3°
Enters shadow 00:23:41 - 80° (E) 2,976 6.8 -40.2°
